Location: Birdsville
(25.8981°S, 139.3523°E)
Time: 15:36:26
(UTC+10:00)

Tiangong - Visible Passes

Search period start: 02 December 2023 00:00
Search period end: 12 December 2023 00:00
Orbit: 373 x 384 km, 41.5° (Epoch: 01 December)

Date Brightness Start Highest point End Pass type
(mag) Time Alt. Az. Time Alt. Az. Time Alt. Az.
06 Dec 1.1 04:34:12 10° S 04:35:37 12° SSE 04:37:03 10° SE visible
07 Dec -0.4 05:07:45 10° SW 05:10:41 35° SSE 05:13:35 10° E visible
08 Dec 0.7 04:06:14 10° SSW 04:08:34 19° SSE 04:10:54 10° ESE visible
08 Dec -0.3 20:34:00 10° NNW 20:35:07 17° N 20:35:07 17° N visible
09 Dec 1.3 03:05:57 11° SSE 03:06:17 11° SSE 03:07:26 10° SE visible
09 Dec -2.0 04:40:12 10° SW 04:43:20 73° SSE 04:46:26 10° ENE visible
09 Dec -1.7 21:07:55 10° WNW 21:11:02 62° SSW 21:11:12 60° SSW visible
10 Dec -0.3 03:40:55 31° SSE 03:41:11 31° SSE 03:44:01 10° E visible
10 Dec -0.8 05:15:20 10° W 05:17:43 20° NW 05:20:06 10° N visible
10 Dec -2.0 20:05:50 10° NW 20:08:54 50° NE 20:11:58 10° ESE visible
10 Dec 0.7 21:43:30 10° WSW 21:45:42 17° SSW 21:46:34 16° S visible
11 Dec -1.2 04:16:40 33° NNE 04:16:40 33° NNE 04:18:40 10° NE visible
11 Dec -0.2 20:40:28 10° W 20:43:20 31° SSW 20:46:13 10° SE visible
